Buffalo, NY

3:16 PM EST on January 21, 2017 (GMT -0500)
Buffalo Niagara International Airport

Weather History for KBUF - January, 2015

Change the Weather History Date:

Tuesday, January 27, 2015

  Actual Average Record
Temperature  
Mean Temperature 13 °F 24 °F  
Max Temperature 18 °F 31 °F 66 °F (1916)
Min Temperature 8 °F 18 °F -5 °F (1927)
Degree Days  
Heating Degree Days 52 41  
Month to date heating degree days 1185 1085  
Since 1 July heating degree days 3451 3500  
Cooling Degree Days 0 0  
Month to date cooling degree days 0 0  
Year to date cooling degree days 0 0  
Moisture  
Dew Point 8 °F    
Average Humidity 72    
Maximum Humidity 88    
Minimum Humidity 56    
Precipitation  
Precipitation 0.03 in 0.10 in 1.21 in (1889)
Month to date precipitation 2.32 2.83  
Year to date precipitation 2.32 2.83  
Snow  
Snow 0.90 in 0.70 in 5.10 in (1978)
Month to date snowfall 22.6 22.4  
Since 1 July snowfall 54.4 58.6  
Snow Depth 4.00 in    
Sea Level Pressure  
Sea Level Pressure 30.04 in    
Wind  
Wind Speed 9 mph (North)    
Max Wind Speed 16 mph    
Max Gust Speed 20 mph    
Visibility 7 miles    
Events Snow    
T = Trace of Precipitation, MM = Missing Value Source: NWS Daily Summary

Daily Weather History Graph

Daily Weather History Graph

Search for Another Location

Airport or City:

Trip Planner

Search our weather history database for the weather conditions in past years. The results will help you decide how hot, cold, wet, or windy it might be!

Date:

Astronomy

Jan. 27, 2015 Rise Set
Actual Time 7:34 AM EST 5:20 PM EST
Civil Twilight 7:04 AM EST 5:51 PM EST
Nautical Twilight 6:30 AM EST 6:25 PM EST
Astronomical Twilight 5:56 AM EST 6:59 PM EST
Moon 11:45 AM EST (1/27) 12:58 AM EST (1/27)
Length of Visible Light 10h 46m
Length of Day
9h 45m
First Quarter, 55% of the Moon is Illuminated
Jan 27
First Quarter
Feb 3
Full
Feb 11
Last Quarter
Feb 18
New
Feb 25
First Quarter

Hourly Weather History & Observations

Time (EST) Temp. Windchill Dew Point Humidity Pressure Visibility Wind Dir Wind Speed Gust Speed Precip Events Conditions
12:54 AM 16.0 °F 3.6 °F 10.9 °F 81% 29.95 in 4.0 mi NNE 10.4 mph - 0.00 in Snow Light Snow
1:54 AM 16.0 °F 4.4 °F 10.9 °F 81% 29.94 in 5.0 mi NNE 9.2 mph - 0.00 in Snow Light Snow
2:27 AM 15.1 °F 3.3 °F 10.9 °F 84% 29.90 in 5.0 mi NNE 9.2 mph - 0.00 in Snow Light Snow
2:47 AM 16.0 °F 4.4 °F 10.9 °F 81% 29.91 in 5.0 mi NNE 9.2 mph - 0.00 in Snow Light Snow
2:54 AM 16.0 °F 4.4 °F 10.9 °F 81% 29.95 in 4.0 mi NNE 9.2 mph - 0.00 in Snow Light Snow
3:54 AM 16.0 °F 4.4 °F 12.0 °F 84% 29.96 in 7.0 mi NNE 9.2 mph - 0.01 in Snow Light Snow
4:03 AM 16.0 °F 2.9 °F 10.9 °F 81% 29.92 in 7.0 mi NNE 11.5 mph - 0.00 in Snow Light Snow
4:54 AM 16.0 °F 0.6 °F 12.0 °F 84% 29.97 in 5.0 mi NNE 16.1 mph 20.7 mph 0.00 in Snow Light Snow
5:54 AM 16.0 °F 1.7 °F 10.9 °F 81% 29.99 in 3.0 mi NNE 13.8 mph - 0.00 in Snow Light Snow
6:54 AM 14.0 °F -0.2 °F 9.0 °F 80% 30.01 in 3.0 mi NE 12.7 mph - 0.00 in Snow Light Snow
7:38 AM 14.0 °F 0.5 °F 8.1 °F 77% 29.99 in 5.0 mi NE 11.5 mph - 0.00 in Snow Light Snow
7:54 AM 14.0 °F 2.9 °F 8.1 °F 77% 30.03 in 5.0 mi NNE 8.1 mph - 0.00 in Snow Light Snow
8:54 AM 14.0 °F 2.9 °F 9.0 °F 80% 30.05 in 4.0 mi NNE 8.1 mph - 0.00 in Snow Light Snow
9:27 AM 14.0 °F 2.9 °F 8.1 °F 77% 30.00 in 2.0 mi NNE 8.1 mph - 0.00 in Snow Light Snow
9:52 AM 14.0 °F 1.2 °F 8.6 °F 79% 30.01 in 3.0 mi NNE 10.4 mph - 0.00 in Snow Light Snow
9:54 AM 14.0 °F -0.2 °F 8.1 °F 77% 30.05 in 4.0 mi NNE 12.7 mph - 0.00 in Snow Light Snow
10:22 AM 15.1 °F 3.3 °F 8.1 °F 74% 30.01 in 9.0 mi NNE 9.2 mph - 0.00 in Snow Light Snow
10:54 AM 16.0 °F 1.7 °F 8.1 °F 71% 30.06 in 10.0 mi NNE 13.8 mph - 0.00 in Snow Light Snow
11:54 AM 16.0 °F 2.3 °F 7.0 °F 68% 30.06 in 10.0 mi NNE 12.7 mph - 0.00 in Snow Light Snow
12:10 PM 16.0 °F 2.3 °F 7.0 °F 68% 30.00 in 10.0 mi NNE 12.7 mph - 0.00 in Snow Light Snow
12:52 PM 17.6 °F 9.3 °F 6.8 °F 63% 30.00 in 10.0 mi North 5.8 mph - 0.00 in Snow Light Snow
12:54 PM 17.1 °F 6.6 °F 7.0 °F 65% 30.05 in 10.0 mi North 8.1 mph - 0.00 in Snow Light Snow
1:54 PM 17.1 °F 7.6 °F 6.1 °F 62% 30.05 in 10.0 mi NE 6.9 mph - 0.00 in   Mostly Cloudy
2:54 PM 18.0 °F 7.7 °F 6.1 °F 60% 30.06 in 10.0 mi North 8.1 mph - N/A   Mostly Cloudy
3:54 PM 17.1 °F 3.6 °F 5.0 °F 59% 30.09 in 10.0 mi NNW 12.7 mph - N/A   Mostly Cloudy
4:54 PM 15.1 °F 5.2 °F 3.0 °F 59% 30.12 in 10.0 mi North 6.9 mph - N/A   Scattered Clouds
5:54 PM 15.1 °F - 3.0 °F 59% 30.13 in 10.0 mi Calm Calm - N/A   Mostly Cloudy
6:54 PM 14.0 °F 8.2 °F 3.9 °F 64% 30.13 in 10.0 mi West 3.5 mph - N/A   Mostly Cloudy
7:54 PM 14.0 °F 3.9 °F 6.1 °F 71% 30.13 in 10.0 mi West 6.9 mph - N/A   Scattered Clouds
8:54 PM 14.0 °F 6.5 °F 5.0 °F 67% 30.13 in 10.0 mi WNW 4.6 mph - N/A   Partly Cloudy
9:54 PM 14.0 °F 5.1 °F 3.0 °F 62% 30.13 in 10.0 mi NW 5.8 mph - N/A   Partly Cloudy
10:54 PM 10.9 °F 4.7 °F 3.0 °F 70% 30.15 in 10.0 mi WSW 3.5 mph - N/A   Clear
11:54 PM 9.0 °F 2.4 °F 5.0 °F 84% 30.15 in 10.0 mi SW 3.5 mph - N/A   Clear